AirNav   Pilot Hours Calculator
 
 1037 users online  

WN92 Sky Meadows Airpark
Spokane, Washington, USA

GOING TO SPOKANE?


FAA INFORMATION EFFECTIVE 01 DECEMBER 2022

Location

FAA Identifier: WN92
Lat/Long: 47-36-30.6280N 117-10-50.7260W
47-36.510467N 117-10.845433W
47.6085078,-117.1807572
(estimated)
Elevation: 2350 ft. / 716 m (estimated)
Variation: 19E (1985)
From city: 8 miles SE of SPOKANE, WA
Time zone: UTC -8 (UTC -7 during Daylight Saving Time)
Zip code: 99016

Airport Operations

Airport use: Private use. Permission required prior to landing
Activation date: 01/1988
Control tower: no
ARTCC: SEATTLE CENTER
FSS: SEATTLE FLIGHT SERVICE STATION
Attendance: UNATNDD
Wind indicator: yes
Segmented circle: no
Lights: ACTVT MIRL RY 16/34 - 122.9.

Airport Communications

WX ASOS at SFF (7 nm NW): 120.55 (509-535-3290)
WX ASOS at GEG (14 nm W): PHONE 509-742-2544
WX AWOS-3PT at COE (18 nm NE): 135.075 (208-772-8215)

Nearby radio navigation aids

VOR radial/distance  VOR name  Freq  Var
COEr217/17.6COEUR D'ALENE VOR/DME108.8019E
GEGr061/18.2SPOKANE VORTAC115.5021E

 
NDB name  Hdg/Dist  Freq  Var  ID
DEER PARK139/23.736516EDPY -.. .--. -.--

Airport Services

Runway Information

Runway 16/34

Dimensions: 3100 x 100 ft. / 945 x 30 m
Surface: turf, in good condition
Runway edge lights: medium intensity
RUNWAY 16  RUNWAY 34
Traffic pattern: leftleft
Displaced threshold: no400 ft.

Airport Ownership and Management from official FAA records

Ownership: Privately-owned
Owner: SKY MEADOWS AIRPARK ASSOC
16616 E 44TH AVE
GREENACRES, WA 99016
Phone (509) 999-1505
OR CALL 509-926-1636 (EVENINGS).
Manager: RUSTY IMES
51209 S SKY MEADOWS LN
GREENACRES, WA 99016
Phone 509-370-6445
ALT MANAGER 509-891-6764.

Airport Operational Statistics

Aircraft based on the field: 7
Single engine airplanes: 7
    

Additional Remarks

FOR CD CTC SPOKANE APCH AT 509-742-2522

Instrument Procedures

There are no published instrument procedures at WN92.

Some nearby airports with instrument procedures:

KSFF - Felts Field Airport (7 nm NW)
KGEG - Spokane International Airport (14 nm W)
KCOE - Coeur d'Alene Airport - Pappy Boyington Field (18 nm NE)
KSKA - Fairchild Air Force Base (19 nm W)
KDEW - Deer Park Airport (24 nm NW)
 
Loc | Ops | Rwys | IFR | FBO | Links
Com | Nav | Svcs | Stats | Notes
Area around WN92 (Sky Meadows Airpark)
 
Road maps at: MapQuest Bing Google
 
Aerial photo
WARNING: Photo may not be current or correct
Aerial photo of WN92 (Sky Meadows Airpark)
Do you have a better or more recent aerial photo of Sky Meadows Airpark that you would like to share? If so, please send us your photo.

 
Sectional chart

 
Airport distance calculator
Flying to Sky Meadows Airpark? Find the distance to fly.

From to WN92

Sunrise and sunset
Times for 03-Dec-2022
 Local
(UTC-8)
 Zulu
(UTC)
Morning civil twilight06:4414:44
Sunrise07:2015:20
Sunset15:5823:58
Evening civil twilight16:3300:33

Current date and time
Zulu (UTC)  03-Dec-2022 17:27:46
Local (UTC-8)  03-Dec-2022 09:27:46
 
METAR
KSFF 
7nm NW 
031653Z 00000KT 10SM CLR M09/M10 A3028 RMK AO2 SLP286 I1002 T10891100
KGEG 
14nm W 
031653Z 06005KT 8SM FEW130 FEW180 M06/M11 A3023 RMK AO2 SLP274 I1001 T10561111
KCOE 
18nm NE 
031656Z AUTO 05009KT 10SM CLR M08/M09 A3026 RMK AO2 SLP309 T10831094 FZRANO
KSKA 
19nm W 
031655Z 06005KT 6SM BR CLR M11/M14 A3021 RMK AO2A SLPNO T11071140 $
TAF
KSFF 
7nm NW 
031125Z 0312/0412 00000KT 6SM BR FEW005 OVC100 FM031400 VRB02KT P6SM SCT007 BKN250 FM031800 VRB02KT P6SM SCT007 SCT250 FM040000 00000KT P6SM BKN250
KGEG 
14nm W 
031123Z 0312/0412 04004KT 4SM BR FEW001 OVC100 FM031500 03005KT 5SM BR SCT007 BKN250 FM031900 03005KT P6SM SCT015 BKN250
KCOE 
18nm NE 
031425Z 0314/0412 02006KT 6SM BR FEW003 FM040000 02006KT P6SM BKN250 FM040200 02012KT P6SM SCT250
KSKA 
19nm W 
031100Z 0311/0417 05008KT 8000 BR BKN090 620901 QNH3014INS BECMG 0319/0321 04009KT 9999 NSW SCT090 BKN200 QNH3014INS BECMG 0408/0409 05007KT 6000 BR SCT004 BKN120 QNH2999INS TXM05/0322Z TNM15/0313Z
NOTAMs
Click for the latest NOTAMs
NOTAMs are issued by the DoD/FAA and will open in a separate window not controlled by AirNav.

 

 
 

Would you like to see your business listed on this page?

 If your business provides an interesting product or service to pilots, flight crews, aircraft, or users of the Sky Meadows Airpark, you should consider listing it here.  To start the listing process, click on the button below
 
Add a business
 

Other Pages about Sky Meadows Airpark

Update a link
 
Copyright © AirNav, LLC. All rights reserved. Privacy Policy  Contact